Hourly Data Report for March 28, 2012

All times are specified in Local Standard Time (LST). Add 1 hour to adjust for Daylight Saving Time where and when it is observed.

HALIFAX STANFIELD INT'L A
NOVA SCOTIA

44°52'48.060" N
63°30'00.050" W
145.40 m
8202250
71395
YHZ

Download Data

Hourly Data (March 2012)
Hourly Data Report for March 28, 2012
TIME Temp Definition
°C
Dew Point Definition
°C
Rel Hum Definition
%
Wind Dir Definition
10's deg

Wind Spd Definition
km/h
Visibility Definition
km
Stn Press Definition
kPa
Hmdx Definition


Wind Chill Definition


Weather Definition


00:00 -4.8 -10.6 64 33 32 19.3 99.38   -13 Snow Showers
01:00 -5.0 -12.0 58 32 26 19.3 99.39   -12 Snow Showers
02:00 -5.7 -12.8 57 32 30 24.1 99.39   -14 Snow Showers
03:00 -5.9 -12.9 58 31 24 24.1 99.38   -13 Clear
04:00 -5.7 -13.4 55 32 30 24.1 99.38   -14 Clear
05:00 -6.1 -13.1 58 31 26 24.1 99.41   -14 Clear
06:00 -6.3 -12.8 60 32 22 24.1 99.44   -14 Mainly Clear
07:00 -5.6 -12.1 60 31 22 24.1 99.49   -13 Mainly Clear
08:00 -4.3 -11.8 56 32 26 24.1 99.47   -12 Mainly Clear
09:00 -3.6 -11.3 55 35 26 24.1 99.46   -11 Mainly Clear
10:00 -2.2 -9.5 57 35 30 24.1 99.45   -9 Mostly Cloudy
11:00 -1.5 -9.4 55 33 24 24.1 99.37   -8 Mainly Clear
12:00 -0.1 -9.0 51 32 22 24.1 99.31   -6 Mainly Clear
13:00 1.5 -8.2 48 35 26 24.1 99.23     Mostly Cloudy
14:00 1.3 -7.9 50 35 22 24.1 99.21     Mostly Cloudy
15:00 2.0 -8.0 47 34 20 24.1 99.14     Mainly Clear
16:00 2.7 -7.8 46 32 24 24.1 99.09     Mainly Clear
17:00 1.9 -7.9 48 36 17 24.1 99.06     Mostly Cloudy
18:00 0.6 -7.1 56 3 11 24.1 99.14     Mostly Cloudy
19:00 -1.5 -7.1 66 3 6 24.1 99.12   -4 Mostly Cloudy
20:00 -1.7 -6.3 71 5 13 24.1 99.13   -6 Mostly Cloudy
21:00 -2.1 -6.2 73 5 11 24.1 99.08   -6 Cloudy
22:00 -2.9 -6.2 78 5 9 24.1 99.05   -6 Cloudy
23:00 -2.9 -6.2 78 6 6 24.1 99.03   -5 Cloudy

Notes on Data Quality.

Legend

  • E = Estimated
  • M = Missing
  • NA = Not Available
Date modified: